Theta_e
316 325 338 344 353 353 352 353 354 353 353 350 349 349 349 349 348 349 351 351 351 349 348 346 346 344 343 343 342 342 344 345 345 344 343 341 339 339 339 340 343 341 345
315 325 334 344 351 353 353 353 352 352 352 350 349 349 349 348 348 347 349 349 349 347 346 345 344 343 342 341 343 344 344 344 343 342 341 341 341 339 340 341 343 342 345
311 321 328 336 346 350 352 351 351 351 351 351 349 349 349 349 348 347 347 349 349 346 344 343 343 341 341 343 343 344 343 343 340 338 335 326 332 339 343 343 345 345 345
309 316 320 331 340 347 349 349 349 350 350 351 350 349 349 349 348 347 346 348 347 345 344 342 341 342 344 344 344 342 342 340 338 336 326 326 331 339 343 343 343 344 345
306 311 319 325 333 340 346 348 348 348 349 350 351 351 350 349 349 349 348 347 347 347 344 343 343 343 343 344 344 341 340 338 336 330 323 324 326 335 340 341 341 342 343
302 310 320 323 322 329 333 344 347 347 349 349 349 350 351 351 349 348 348 347 346 346 346 345 346 344 343 343 342 341 339 337 334 322 322 329 325 335 339 340 339 340 341
301 308 312 323 319 320 324 330 339 347 347 349 348 349 349 349 348 348 347 346 346 346 345 346 346 345 343 342 341 340 338 334 324 320 324 322 324 336 338 339 339 340 340
301 305 310 316 320 319 320 320 328 338 345 346 347 347 348 347 346 347 347 346 345 346 345 345 345 344 342 341 339 338 334 330 322 320 321 322 333 336 336 337 338 338 338
303 303 304 307 312 316 319 322 321 327 333 342 344 345 343 342 342 343 344 345 345 345 344 343 343 342 341 340 338 335 330 328 319 320 323 322 335 336 336 338 336 337 337
303 303 303 305 306 307 312 318 322 325 327 334 337 338 336 336 336 338 336 340 344 344 343 342 341 341 340 338 336 331 327 326 319 319 319 323 335 336 339 337 336 335 337
301 302 303 303 304 306 308 311 318 324 326 329 331 330 331 337 337 335 335 336 341 341 342 341 341 339 336 334 332 328 325 320 319 318 317 328 336 336 336 334 333 333 336
296 299 302 302 303 305 307 308 312 321 324 329 335 337 334 335 337 337 332 331 335 335 338 340 339 336 331 329 327 325 321 319 318 316 316 330 336 334 334 335 334 333 336
296 297 299 299 301 302 304 306 309 314 321 323 328 336 337 336 334 334 335 334 335 328 335 337 335 332 329 325 322 321 320 318 317 317 319 328 335 335 333 334 336 335 336
294 295 297 298 299 300 302 304 305 307 315 321 322 325 334 335 334 333 333 334 334 334 333 333 332 328 326 324 322 320 318 317 316 317 318 324 332 335 332 333 337 336 335
293 294 295 296 297 299 299 302 304 304 307 316 322 323 325 333 333 333 333 333 333 333 333 332 329 326 324 323 321 319 318 317 316 317 318 319 326 333 332 332 336 338 336
293 293 294 295 296 298 298 299 300 304 305 308 313 318 321 323 330 333 333 334 332 333 332 331 328 325 323 323 320 319 318 317 315 315 318 319 323 329 332 333 335 336 337
292 293 293 294 295 296 297 298 300 302 304 306 311 315 318 319 321 324 332 333 333 333 331 329 327 326 323 322 321 319 318 316 315 315 316 317 320 322 327 332 333 335 336
291 291 292 294 293 294 295 297 299 300 302 304 306 309 314 317 319 321 324 329 332 333 331 329 326 324 322 321 320 319 317 315 314 314 314 316 317 319 322 328 331 334 334
290 290 291 292 293 294 295 297 298 300 301 303 305 308 312 315 320 321 325 327 329 331 330 329 326 324 322 320 320 315 314 313 313 314 313 313 315 316 316 321 324 325 331
289 290 290 292 292 293 295 296 297 299 300 302 303 306 310 312 315 319 325 327 327 329 328 327 326 325 323 321 320 315 310 310 310 310 311 313 313 315 316 316 318 319 321
288 289 289 289 290 291 292 291 292 293 298 300 302 306 308 311 314 319 323 325 326 326 327 327 326 323 319 320 316 313 309 308 308 309 310 311 310 312 313 316 317 317 318
286 287 288 289 290 293 292 293 294 295 297 300 302 304 309 311 314 317 318 322 324 326 326 326 324 321 320 319 314 313 307 308 308 310 310 310 310 311 312 314 315 316 316
284 285 287 289 290 291 292 294 296 297 297 298 300 301 307 311 312 314 315 317 321 323 323 325 325 322 318 318 318 313 306 305 307 310 309 310 311 310 312 312 314 316 317
284 285 286 289 290 291 292 293 294 294 295 297 299 302 308 311 311 313 314 315 319 322 321 323 324 323 321 316 318 316 314 313 308 306 309 310 310 310 311 311 313 315 316
284 284 287 289 289 291 291 293 294 295 298 299 300 300 304 307 311 313 313 314 318 321 323 322 321 322 322 320 317 314 313 311 312 309 305 307 310 310 311 311 312 313 314
283 283 285 286 288 289 290 292 294 295 299 298 298 300 304 306 309 310 312 313 315 319 320 323 324 323 322 321 319 317 315 312 311 309 307 308 308 309 311 309 309 311 312
Wind_Speed
8 12 20 14 8 11 8 6 8 10 12 12 10 11 10 10 10 10 13 13 12 12 14 11 11 11 10 10 11 11 12 13 14 14 14 13 14 14 11 9 8 7 12
5 10 19 13 8 10 9 7 8 10 11 13 11 11 12 12 12 11 10 11 12 12 12 13 11 11 11 11 10 11 13 14 14 13 11 11 12 12 6 6 9 10 14
7 10 14 22 15 8 9 8 7 10 12 14 14 13 12 13 13 13 12 10 11 12 12 12 13 12 11 11 11 12 15 14 14 14 11 5 6 10 11 13 12 13 15
7 8 12 20 19 13 9 9 8 9 12 13 14 14 14 14 14 14 13 12 11 12 12 13 14 14 12 12 14 16 17 14 10 13 5 5 6 11 12 12 13 13 15
6 5 10 18 21 17 12 9 9 10 10 13 13 14 15 15 15 14 13 12 12 12 14 15 14 14 13 12 14 15 16 13 8 9 5 6 4 8 12 12 10 12 10
7 5 9 15 17 19 20 17 9 10 10 12 14 14 15 14 15 14 14 13 12 12 14 15 14 15 14 14 13 15 14 14 9 5 6 8 6 8 9 11 10 11 8
8 5 6 12 15 14 15 19 18 10 11 13 14 14 14 14 16 16 15 14 14 13 12 14 16 16 16 15 15 14 13 12 7 5 5 6 7 8 10 9 9 10 10
6 7 6 8 12 16 15 12 16 15 10 13 13 14 14 14 14 16 16 15 14 14 14 15 16 18 17 17 15 13 12 11 8 5 6 6 9 12 11 10 9 9 9
8 8 7 7 8 10 13 13 9 15 14 11 13 13 13 14 14 15 15 16 16 15 16 16 17 18 18 18 16 14 12 10 7 4 6 4 10 14 15 14 12 10 8
9 10 8 7 7 7 6 12 11 8 14 14 10 11 12 12 13 13 13 14 16 16 15 18 18 19 19 18 16 13 12 9 5 5 4 6 14 16 14 16 12 9 9
11 11 9 10 8 7 6 6 11 10 9 14 10 10 9 7 9 10 12 13 16 15 15 19 19 19 17 16 15 13 10 3 4 3 3 9 15 16 13 13 11 11 12
10 11 11 13 13 12 7 6 6 9 6 6 7 8 6 7 8 10 11 15 16 14 14 17 19 17 13 7 6 10 4 5 4 4 3 11 16 17 15 15 15 16 15
6 6 8 11 11 11 11 6 4 3 5 4 8 8 9 6 5 6 6 7 8 11 7 11 12 8 9 7 6 5 6 5 4 3 4 11 16 17 17 15 14 17 17
7 7 7 8 11 11 8 8 6 4 5 6 5 7 6 6 7 8 6 8 8 6 9 8 7 8 9 10 10 8 7 5 4 3 5 13 15 16 17 17 14 15 18
5 6 7 8 9 11 11 8 9 6 5 7 6 6 6 6 9 8 8 8 9 9 10 10 9 8 9 10 10 11 10 8 7 4 4 14 13 14 16 19 18 15 18
6 7 5 7 8 9 9 11 10 9 9 5 7 7 7 6 8 9 10 10 10 11 11 11 11 10 9 9 9 11 10 9 7 6 5 7 14 13 15 18 17 12 16
8 7 8 13 11 8 12 11 10 9 10 7 6 7 8 7 8 8 7 9 13 12 15 12 11 10 9 8 11 9 9 9 8 7 6 5 8 13 14 16 17 16 15
6 10 11 12 14 13 11 10 10 10 9 9 8 7 8 9 9 7 7 10 9 6 13 12 13 12 11 11 9 8 8 9 7 6 5 5 5 6 9 14 16 16 17
7 9 11 12 13 13 14 11 11 12 9 9 8 8 8 7 7 8 6 6 8 8 6 11 11 14 12 11 11 5 6 6 6 5 6 7 7 6 5 11 14 13 14
7 6 10 10 13 14 8 10 9 10 9 9 9 9 8 6 7 8 8 9 8 9 9 7 10 9 10 9 9 6 4 4 5 5 6 5 6 7 7 8 7 9 14
8 9 10 13 14 12 8 9 9 8 11 9 9 11 12 9 9 9 8 8 9 9 8 12 12 12 5 5 5 2 2 4 6 6 5 7 6 7 7 7 6 5 7
8 11 12 14 13 11 9 10 10 10 10 12 10 10 12 11 10 9 8 7 8 7 11 13 12 8 6 13 7 7 4 1 5 9 7 8 11 6 8 9 9 8 7
10 11 14 13 15 15 15 12 11 10 10 10 11 9 10 11 9 8 7 8 8 7 7 13 14 13 10 10 13 6 4 4 3 3 9 9 12 8 10 10 10 10 10
13 10 13 13 15 15 16 14 15 13 12 10 10 7 7 8 8 8 8 7 9 8 8 9 11 12 10 10 8 3 3 6 5 1 3 9 8 9 10 6 10 11 11
13 12 12 12 14 14 15 15 13 14 13 10 10 11 10 6 7 8 6 6 7 8 11 12 13 14 12 12 12 9 7 3 3 4 3 3 5 8 9 9 9 8 8
13 12 11 13 13 14 15 15 16 20 14 9 9 9 6 4 5 6 5 5 5 7 10 12 13 17 16 16 12 12 12 9 7 5 3 3 7 5 9 7 8 7 7
Wind_Direction
352 352 339 299 186 155 156 168 167 159 152 152 153 149 148 141 138 135 133 133 137 143 144 148 149 152 143 131 126 124 122 120 112 110 109 112 116 121 111 90 89 107 109
351 355 1 349 238 165 163 171 179 174 165 162 165 166 165 159 157 159 152 146 150 158 156 153 157 159 148 139 131 130 122 114 114 108 99 108 115 110 91 126 118 116 112
26 20 10 4 339 196 176 176 189 185 180 175 175 177 176 172 171 174 171 166 162 167 163 162 160 161 155 146 136 136 139 132 128 117 109 106 118 105 95 110 114 117 119
26 34 22 8 3 337 199 192 194 199 192 190 184 180 181 182 181 184 182 177 178 174 173 171 167 163 158 155 145 142 139 138 156 130 126 129 128 121 109 115 115 118 125
29 42 36 24 12 360 332 203 203 206 200 198 195 189 189 187 189 191 187 189 187 184 180 177 176 165 164 166 153 148 144 145 169 135 147 138 134 139 121 115 106 111 127
4 27 45 32 25 8 3 346 229 208 207 207 205 201 197 195 192 197 193 197 197 196 190 183 176 168 155 151 150 149 154 151 181 117 134 147 142 151 117 125 113 100 103
344 21 34 34 24 20 9 355 345 236 216 211 211 209 207 204 200 194 194 197 197 201 194 176 174 165 161 159 156 156 157 164 135 140 146 136 150 153 129 118 118 115 108
355 4 29 25 17 5 359 359 344 343 262 228 217 216 215 213 210 196 193 191 198 199 189 173 162 161 160 161 162 165 167 180 131 134 174 150 159 170 170 141 135 132 123
7 19 8 13 9 2 346 336 343 325 327 287 233 217 213 214 216 207 199 196 194 195 191 183 170 168 167 167 167 169 178 175 156 144 185 155 162 175 187 169 154 151 146
9 10 357 0 352 345 340 325 321 311 312 310 273 223 212 210 211 208 205 204 200 194 193 185 177 177 172 171 170 172 178 183 181 149 219 174 170 186 192 187 158 159 166
4 355 347 342 334 327 324 322 323 316 296 281 277 245 220 217 214 207 207 200 205 200 189 177 179 179 177 174 172 171 172 184 193 194 176 191 180 189 194 188 199 198 182
352 347 1 351 345 333 319 322 312 307 304 299 273 251 217 208 206 205 204 203 202 196 195 182 179 178 169 173 178 170 168 181 195 194 233 195 190 193 201 194 204 201 195
340 344 345 340 337 336 327 311 308 311 298 296 297 270 232 216 208 204 201 208 209 197 197 186 181 179 174 167 168 170 179 179 182 205 222 210 187 194 202 205 215 202 201
346 330 329 329 328 322 317 313 292 300 300 294 284 283 272 223 213 207 202 201 199 191 194 192 186 181 177 174 173 177 189 193 194 190 200 203 188 198 208 211 213 216 211
329 312 312 317 315 310 307 304 305 286 275 283 286 283 283 274 222 217 210 204 197 188 190 187 182 182 184 181 180 181 188 197 205 205 183 191 189 198 207 212 223 221 208
309 301 287 293 289 299 306 308 302 300 286 265 272 271 273 273 288 217 218 209 202 194 187 188 182 180 188 185 187 192 190 196 197 197 195 192 186 194 198 213 230 221 216
322 314 328 321 314 305 302 297 293 291 291 279 265 263 262 261 269 285 254 236 208 199 195 183 182 179 181 193 195 191 187 198 199 185 178 184 194 192 194 209 223 231 228
330 326 318 314 306 299 290 286 284 283 284 283 273 259 249 254 256 262 257 253 262 212 196 190 181 181 186 194 199 194 183 188 194 195 172 180 189 195 203 207 213 222 228
311 317 320 322 313 308 301 294 286 280 276 272 270 265 239 232 246 254 251 230 218 222 233 198 187 186 188 193 202 180 173 179 180 186 204 191 192 190 188 210 212 216 223
312 315 319 316 317 317 321 318 313 293 271 267 265 262 238 230 233 251 251 244 219 219 205 174 197 216 195 194 194 183 177 173 175 196 204 210 203 198 193 199 208 220 221
319 315 316 313 304 298 303 303 295 286 299 276 267 253 245 232 222 238 247 257 224 209 197 192 190 178 134 173 144 135 187 195 198 211 204 213 219 212 200 205 202 200 216
313 312 307 306 302 304 304 290 277 278 275 283 273 273 241 221 221 222 235 251 243 223 205 182 175 179 169 165 161 160 164 206 237 223 205 214 219 212 219 215 209 205 207
308 307 304 309 306 297 299 290 278 268 267 268 268 260 248 216 211 210 219 243 250 226 204 197 179 186 188 180 166 160 138 190 173 195 220 213 215 211 223 220 214 214 212
307 303 296 301 300 300 300 292 280 271 270 266 268 263 242 202 205 206 203 238 251 239 206 206 199 187 158 170 164 165 110 148 183 246 242 219 212 212 218 216 218 217 213
311 305 302 302 302 296 299 291 283 274 260 254 257 267 251 217 204 199 197 224 256 239 230 205 206 195 178 174 188 175 155 169 109 148 216 210 214 220 222 216 218 218 206
312 305 298 298 298 300 298 296 291 286 241 233 246 252 239 204 183 186 207 234 259 233 237 222 206 202 193 194 182 183 189 179 165 176 157 188 201 201 215 212 211 212 202